Location: ????????
(55.3975°N, 38.2844°E)
Time: 12:34:48
(UTC+00:00)

BlueWalker 3 - Pass Details

Date: 16 August 2024
Orbit: 475 x 487 km, 53.2° (Epoch: 14 September)

Event Time Altitude Azimuth Distance (km) Brightness Sun altitude
Exits shadow 23:08:45 51° 207° (SSW) 621 1.9 -18.3°
Maximum altitude 23:09:17 58° 170° (S) 579 1.9 -18.2°
Drops below altitude 10° 23:13:02 10° 91° (E) 1,687 4.9 -18.0°
Sets 23:15:14 0° 88° (E) 2,570 5.9 -17.9°
